Time,TemperatureF,DewpointF,PressureIn,WindDirection,WindDirectionDegrees,WindSpeedMPH,WindSpeedGustMPH,Humidity,HourlyPrecipIn,Conditions,Clouds,dailyrainin,SolarRadiationWatts/m^2,SoftwareType,DateUTC
2016-08-28 00:02:00,73.4,65.0,30.15,ENE,78,0.0,0.0,75,0.00,CLR,,0.00,0.0,WeatherDisplay:10.37,2016-08-28 04:02:00,
2016-08-28 00:07:00,73.2,64.8,30.15,ENE,78,0.0,0.0,75,0.00,CLR,,0.00,0.0,WeatherDisplay:10.37,2016-08-28 04:07:00,
2016-08-28 00:12:00,73.1,65.1,30.15,ENE,78,0.0,0.0,76,0.00,CLR,,0.00,0.0,WeatherDisplay:10.37,2016-08-28 04:12:00,
2016-08-28 00:17:00,73.0,65.0,30.15,ENE,78,0.0,0.0,76,0.00,CLR,,0.00,0.0,WeatherDisplay:10.37,2016-08-28 04:17:00,
2016-08-28 00:22:00,73.0,65.0,30.15,ENE,78,0.0,0.0,76,0.00,CLR,,0.00,0.0,WeatherDisplay:10.37,2016-08-28 04:22:00,
2016-08-28 00:27:00,73.0,65.0,30.15,ENE,78,0.0,0.0,76,0.00,CLR,,0.00,0.0,WeatherDisplay:10.37,2016-08-28 04:27:00,
2016-08-28 00:32:00,73.1,65.1,30.15,ENE,78,0.0,0.0,76,0.00,CLR,,0.00,0.0,WeatherDisplay:10.37,2016-08-28 04:32:00,
2016-08-28 00:37:00,73.2,65.6,30.15,ENE,78,0.0,0.0,77,0.00,CLR,,0.00,0.0,WeatherDisplay:10.37,2016-08-28 04:37:00,
2016-08-28 00:42:00,73.3,65.7,30.15,ENE,69,0.0,0.0,77,0.00,CLR,,0.00,0.0,WeatherDisplay:10.37,2016-08-28 04:42:00,
2016-08-28 00:47:00,73.4,65.7,30.15,ENE,69,0.0,0.0,77,0.00,CLR,,0.00,0.0,WeatherDisplay:10.37,2016-08-28 04:47:00,
2016-08-28 00:52:00,73.5,65.8,30.15,ENE,69,0.0,0.0,77,0.00,CLR,,0.00,0.0,WeatherDisplay:10.37,2016-08-28 04:52:00,
2016-08-28 00:57:00,73.4,65.7,30.15,ENE,68,0.0,0.0,77,0.00,CLR,,0.00,0.0,WeatherDisplay:10.37,2016-08-28 04:57:00,
2016-08-28 01:02:00,73.4,66.5,30.15,ENE,68,0.0,0.0,79,0.00,CLR,,0.00,0.0,WeatherDisplay:10.37,2016-08-28 05:02:00,
2016-08-28 01:07:00,73.3,66.4,30.15,ENE,69,0.0,0.0,79,0.00,CLR,,0.00,0.0,WeatherDisplay:10.37,2016-08-28 05:07:00,
2016-08-28 01:12:00,73.1,66.2,30.15,ENE,69,0.0,0.0,79,0.00,CLR,,0.00,0.0,WeatherDisplay:10.37,2016-08-28 05:12:00,
2016-08-28 01:17:00,73.0,66.5,30.15,ENE,69,0.0,0.0,80,0.00,CLR,,0.00,0.0,WeatherDisplay:10.37,2016-08-28 05:17:00,
2016-08-28 01:22:00,72.8,66.3,30.15,ENE,69,0.0,0.0,80,0.00,CLR,,0.00,0.0,WeatherDisplay:10.37,2016-08-28 05:22:00,
2016-08-28 01:27:00,72.7,66.5,30.15,ENE,69,0.0,0.0,81,0.00,CLR,,0.00,0.0,WeatherDisplay:10.37,2016-08-28 05:27:00,
2016-08-28 01:32:00,72.5,66.3,30.15,ENE,69,0.0,0.0,81,0.00,CLR,,0.00,0.0,WeatherDisplay:10.37,2016-08-28 05:32:00,
2016-08-28 01:37:00,72.4,66.2,30.15,ENE,69,0.0,0.0,81,0.00,CLR,,0.00,0.0,WeatherDisplay:10.37,2016-08-28 05:37:00,
2016-08-28 01:42:00,72.2,66.4,30.15,ENE,69,0.0,0.0,82,0.00,CLR,,0.00,0.0,WeatherDisplay:10.37,2016-08-28 05:42:00,
2016-08-28 01:47:00,72.1,66.3,30.15,ENE,69,0.0,0.0,82,0.00,CLR,,0.00,0.0,WeatherDisplay:10.37,2016-08-28 05:47:00,
2016-08-28 01:52:00,72.0,66.9,30.15,ENE,69,0.0,0.0,84,0.00,CLR,,0.00,0.0,WeatherDisplay:10.37,2016-08-28 05:52:00,
2016-08-28 01:57:00,71.8,66.7,30.15,ENE,69,0.0,0.0,84,0.00,CLR,,0.00,0.0,WeatherDisplay:10.37,2016-08-28 05:57:00,
2016-08-28 02:02:00,71.7,66.6,30.14,ENE,69,0.0,0.0,84,0.00,CLR,,0.00,0.0,WeatherDisplay:10.37,2016-08-28 06:02:00,
2016-08-28 02:07:00,71.5,66.8,30.15,ENE,68,0.0,0.0,85,0.00,CLR,,0.00,0.0,WeatherDisplay:10.37,2016-08-28 06:07:00,
2016-08-28 02:12:00,71.4,66.7,30.14,ENE,69,0.0,0.0,85,0.00,CLR,,0.00,0.0,WeatherDisplay:10.37,2016-08-28 06:12:00,
2016-08-28 02:18:00,71.3,66.6,30.14,ENE,68,0.0,0.0,85,0.00,CLR,,0.00,0.0,WeatherDisplay:10.37,2016-08-28 06:18:00,
2016-08-28 02:23:00,71.1,66.4,30.15,ENE,69,0.0,0.0,85,0.00,CLR,,0.00,0.0,WeatherDisplay:10.37,2016-08-28 06:23:00,
2016-08-28 02:28:00,70.9,66.5,30.15,ENE,69,0.0,0.0,86,0.00,CLR,,0.00,0.0,WeatherDisplay:10.37,2016-08-28 06:28:00,
2016-08-28 02:33:00,70.8,66.4,30.15,ENE,69,0.0,0.0,86,0.00,CLR,,0.00,0.0,WeatherDisplay:10.37,2016-08-28 06:33:00,
2016-08-28 02:38:00,70.7,66.3,30.15,ENE,68,0.0,0.0,86,0.00,CLR,,0.00,0.0,WeatherDisplay:10.37,2016-08-28 06:38:00,
2016-08-28 02:43:00,70.6,66.2,30.15,ENE,69,0.0,0.0,86,0.00,CLR,,0.00,0.0,WeatherDisplay:10.37,2016-08-28 06:43:00,
2016-08-28 02:48:00,70.4,66.0,30.15,ENE,69,0.0,0.0,86,0.00,CLR,,0.00,0.0,WeatherDisplay:10.37,2016-08-28 06:48:00,
2016-08-28 02:53:00,70.3,66.6,30.15,ENE,69,0.0,0.0,88,0.00,CLR,,0.00,0.0,WeatherDisplay:10.37,2016-08-28 06:53:00,
2016-08-28 02:58:00,70.1,66.4,30.15,ENE,68,0.0,0.0,88,0.00,CLR,,0.00,0.0,WeatherDisplay:10.37,2016-08-28 06:58:00,
2016-08-28 03:03:00,70.0,66.3,30.15,ENE,69,0.0,0.0,88,0.00,SCT,,0.00,0.0,WeatherDisplay:10.37,2016-08-28 07:03:00,
2016-08-28 03:08:00,69.8,66.1,30.14,ENE,68,0.0,0.0,88,0.00,SCT,,0.00,0.0,WeatherDisplay:10.37,2016-08-28 07:08:00,
2016-08-28 03:13:00,69.6,66.2,30.15,ENE,69,0.0,0.0,89,0.00,CLR,,0.00,0.0,WeatherDisplay:10.37,2016-08-28 07:13:00,
2016-08-28 03:18:00,69.5,66.1,30.15,ENE,69,0.0,0.0,89,0.00,SCT,,0.00,0.0,WeatherDisplay:10.37,2016-08-28 07:18:00,
2016-08-28 03:23:00,69.4,66.0,30.15,ENE,69,0.0,0.0,89,0.00,SCT,,0.00,0.0,WeatherDisplay:10.37,2016-08-28 07:23:00,
2016-08-28 03:28:00,69.2,65.8,30.15,ENE,68,0.0,0.0,89,0.00,SCT,,0.00,0.0,WeatherDisplay:10.37,2016-08-28 07:28:00,
2016-08-28 03:33:00,69.1,66.0,30.15,ENE,69,0.0,0.0,90,0.00,SCT,,0.00,0.0,WeatherDisplay:10.37,2016-08-28 07:33:00,
2016-08-28 03:38:00,69.0,65.9,30.15,ENE,69,0.0,0.0,90,0.00,SCT,,0.00,0.0,WeatherDisplay:10.37,2016-08-28 07:38:00,
2016-08-28 03:43:00,68.9,66.5,30.15,ENE,69,0.0,0.0,92,0.00,SCT,,0.00,0.0,WeatherDisplay:10.37,2016-08-28 07:43:00,
2016-08-28 03:48:00,68.8,66.4,30.15,ENE,69,0.0,0.0,92,0.00,CLR,,0.00,0.0,WeatherDisplay:10.37,2016-08-28 07:48:00,
2016-08-28 03:53:00,68.7,66.3,30.15,ENE,69,0.0,0.0,92,0.00,SCT,,0.00,0.0,WeatherDisplay:10.37,2016-08-28 07:53:00,
2016-08-28 03:58:00,68.6,66.2,30.15,ENE,68,0.0,0.0,92,0.00,SCT,,0.00,0.0,WeatherDisplay:10.37,2016-08-28 07:58:00,
2016-08-28 04:03:00,68.6,66.2,30.15,ENE,68,0.0,0.0,92,0.00,FEW,,0.00,0.0,WeatherDisplay:10.37,2016-08-28 08:03:00,
2016-08-28 04:08:00,68.5,66.4,30.15,ENE,69,0.0,0.0,93,0.00,FEW,,0.00,0.0,WeatherDisplay:10.37,2016-08-28 08:08:00,
2016-08-28 04:13:00,68.4,66.3,30.15,ENE,68,0.0,0.0,93,0.00,FEW,,0.00,0.0,WeatherDisplay:10.37,2016-08-28 08:13:00,
2016-08-28 04:18:00,68.4,66.3,30.15,ENE,69,0.0,0.0,93,0.00,FEW,,0.00,0.0,WeatherDisplay:10.37,2016-08-28 08:18:00,
2016-08-28 04:23:00,68.3,66.2,30.15,ENE,69,0.0,0.0,93,0.00,FEW,,0.00,0.0,WeatherDisplay:10.37,2016-08-28 08:23:00,
2016-08-28 04:28:00,68.2,66.1,30.15,ENE,69,0.0,0.0,93,0.00,FEW,,0.00,0.0,WeatherDisplay:10.37,2016-08-28 08:28:00,
2016-08-28 04:33:00,68.2,66.1,30.15,ENE,68,0.0,0.0,93,0.00,FEW,,0.00,0.0,WeatherDisplay:10.37,2016-08-28 08:33:00,
2016-08-28 04:38:00,68.1,66.0,30.15,ENE,69,0.0,0.0,93,0.00,FEW,,0.00,0.0,WeatherDisplay:10.37,2016-08-28 08:38:00,
2016-08-28 04:43:00,68.0,66.2,30.15,ENE,69,0.0,0.0,94,0.00,FEW,,0.00,0.0,WeatherDisplay:10.37,2016-08-28 08:43:00,
2016-08-28 04:48:00,67.9,66.1,30.16,ENE,69,0.0,0.0,94,0.00,FEW,,0.00,0.0,WeatherDisplay:10.37,2016-08-28 08:48:00,
2016-08-28 04:53:00,67.9,66.1,30.16,ENE,69,0.0,0.0,94,0.00,FEW,,0.00,0.0,WeatherDisplay:10.37,2016-08-28 08:53:00,
2016-08-28 04:58:00,67.8,66.0,30.16,ENE,69,0.0,0.0,94,0.00,FEW,,0.00,0.0,WeatherDisplay:10.37,2016-08-28 08:58:00,
2016-08-28 05:03:00,67.8,66.0,30.16,ENE,69,0.0,0.0,94,0.00,CLR,,0.00,0.0,WeatherDisplay:10.37,2016-08-28 09:03:00,
2016-08-28 05:08:00,67.7,65.9,30.16,ENE,69,0.0,0.0,94,0.00,CLR,,0.00,0.0,WeatherDisplay:10.37,2016-08-28 09:08:00,
2016-08-28 05:13:00,67.7,65.9,30.16,ENE,68,0.0,0.0,94,0.00,CLR,,0.00,0.0,WeatherDisplay:10.37,2016-08-28 09:13:00,
2016-08-28 05:18:00,67.6,65.8,30.16,ENE,69,0.0,0.0,94,0.00,CLR,,0.00,0.0,WeatherDisplay:10.37,2016-08-28 09:18:00,
2016-08-28 05:23:00,67.5,65.7,30.16,ENE,69,0.0,0.0,94,0.00,CLR,,0.00,0.0,WeatherDisplay:10.37,2016-08-28 09:23:00,
2016-08-28 05:28:00,67.5,66.3,30.16,ENE,68,0.0,0.0,96,0.00,CLR,,0.00,0.0,WeatherDisplay:10.37,2016-08-28 09:28:00,
2016-08-28 05:33:00,67.4,66.2,30.16,ENE,69,0.0,0.0,96,0.00,CLR,,0.00,0.0,WeatherDisplay:10.37,2016-08-28 09:33:00,
2016-08-28 05:38:00,67.4,66.2,30.16,ENE,69,0.0,0.0,96,0.00,CLR,,0.00,0.0,WeatherDisplay:10.37,2016-08-28 09:38:00,
2016-08-28 05:43:00,67.4,66.2,30.17,ENE,68,0.0,0.0,96,0.00,CLR,,0.00,0.0,WeatherDisplay:10.37,2016-08-28 09:43:00,
2016-08-28 05:48:00,67.3,66.1,30.16,ENE,69,0.0,0.0,96,0.00,CLR,,0.00,0.0,WeatherDisplay:10.37,2016-08-28 09:48:00,
2016-08-28 05:53:00,67.3,66.1,30.17,ENE,68,0.0,0.0,96,0.00,CLR,,0.00,0.0,WeatherDisplay:10.37,2016-08-28 09:53:00,
2016-08-28 05:58:00,67.3,66.1,30.17,ENE,68,0.0,0.0,96,0.00,CLR,,0.00,0.0,WeatherDisplay:10.37,2016-08-28 09:58:00,
2016-08-28 06:03:00,67.3,66.1,30.18,ENE,69,0.0,0.0,96,0.00,SCT,,0.00,0.0,WeatherDisplay:10.37,2016-08-28 10:03:00,
2016-08-28 06:08:00,67.3,66.4,30.18,ENE,68,0.0,0.0,97,0.00,BKN,,0.00,0.0,WeatherDisplay:10.37,2016-08-28 10:08:00,
2016-08-28 06:13:00,67.4,66.5,30.18,ENE,69,0.0,0.0,97,0.00,SCT,,0.00,0.0,WeatherDisplay:10.37,2016-08-28 10:13:00,
2016-08-28 06:18:00,67.6,66.7,30.18,ENE,69,0.0,0.0,97,0.00,SCT,,0.00,0.0,WeatherDisplay:10.37,2016-08-28 10:18:00,
2016-08-28 06:23:00,67.8,67.5,30.18,ENE,69,0.0,0.0,99,0.00,SCT,,0.00,0.0,WeatherDisplay:10.37,2016-08-28 10:23:00,
2016-08-28 06:28:00,67.9,67.0,30.18,ENE,69,0.0,0.0,97,0.00,BKN,,0.00,0.0,WeatherDisplay:10.37,2016-08-28 10:28:00,
2016-08-28 06:33:00,68.0,67.1,30.19,ENE,68,0.0,0.0,97,0.00,SCT,,0.00,0.0,WeatherDisplay:10.37,2016-08-28 10:33:00,
2016-08-28 06:38:00,68.1,67.8,30.19,ENE,69,0.0,0.0,99,0.00,BKN,,0.00,0.0,WeatherDisplay:10.37,2016-08-28 10:38:00,
2016-08-28 06:43:00,68.1,67.8,30.19,ENE,69,0.0,0.0,99,0.00,SCT,,0.00,0.0,WeatherDisplay:10.37,2016-08-28 10:43:00,
2016-08-28 06:48:00,68.1,67.2,30.19,ENE,69,0.0,0.0,97,0.00,SCT,,0.00,0.0,WeatherDisplay:10.37,2016-08-28 10:48:00,
2016-08-28 06:53:00,68.3,68.0,30.19,ENE,69,0.0,0.0,99,0.00,SCT,,0.00,7.0,WeatherDisplay:10.37,2016-08-28 10:53:00,
2016-08-28 06:58:00,68.3,68.0,30.19,ENE,69,0.0,0.0,99,0.00,SCT,,0.00,9.0,WeatherDisplay:10.37,2016-08-28 10:58:00,
2016-08-28 07:03:00,68.5,68.2,30.19,ENE,69,0.0,0.0,99,0.00,SCT,,0.00,9.0,WeatherDisplay:10.37,2016-08-28 11:03:00,
2016-08-28 07:08:00,68.7,68.4,30.19,ENE,69,0.0,0.0,99,0.00,SCT,,0.00,11.0,WeatherDisplay:10.37,2016-08-28 11:08:00,
2016-08-28 07:13:00,68.8,68.5,30.19,ENE,69,0.0,0.0,99,0.00,SCT,,0.00,11.0,WeatherDisplay:10.37,2016-08-28 11:13:00,
2016-08-28 07:18:00,69.1,68.8,30.19,ENE,68,0.0,0.0,99,0.00,SCT,,0.00,14.0,WeatherDisplay:10.37,2016-08-28 11:18:00,
2016-08-28 07:23:00,69.4,69.1,30.19,ENE,68,0.0,0.0,99,0.00,SCT,,0.00,14.0,WeatherDisplay:10.37,2016-08-28 11:23:00,
2016-08-28 07:28:00,69.7,69.4,30.19,ENE,69,0.0,0.0,99,0.00,SCT,,0.00,25.0,WeatherDisplay:10.37,2016-08-28 11:28:00,
2016-08-28 07:33:00,69.9,69.6,30.20,ENE,68,0.0,0.0,99,0.00,SCT,,0.00,33.0,WeatherDisplay:10.37,2016-08-28 11:33:00,
2016-08-28 07:38:00,70.2,69.9,30.20,ENE,64,0.0,0.0,99,0.00,SCT,,0.00,40.0,WeatherDisplay:10.37,2016-08-28 11:38:00,
2016-08-28 07:43:00,70.6,70.3,30.20,NNE,26,0.0,0.0,99,0.00,SCT,,0.00,42.0,WeatherDisplay:10.37,2016-08-28 11:43:00,
2016-08-28 07:48:00,70.9,70.6,30.20,North,9,0.0,0.0,99,0.00,SCT,,0.00,39.0,WeatherDisplay:10.37,2016-08-28 11:48:00,
2016-08-28 07:53:00,71.1,70.8,30.20,North,9,0.0,0.0,99,0.00,SCT,,0.00,47.0,WeatherDisplay:10.37,2016-08-28 11:53:00,
2016-08-28 07:58:00,71.3,71.0,30.20,ENE,68,0.0,1.2,99,0.00,SCT,,0.00,49.0,WeatherDisplay:10.37,2016-08-28 11:58:00,
2016-08-28 08:03:00,71.4,71.1,30.20,ENE,68,0.0,0.0,99,0.00,OVC,,0.00,62.0,WeatherDisplay:10.37,2016-08-28 12:03:00,
2016-08-28 08:08:00,71.6,71.3,30.20,ENE,68,0.0,0.0,99,0.00,OVC,,0.00,58.0,WeatherDisplay:10.37,2016-08-28 12:08:00,
2016-08-28 08:13:00,71.8,71.5,30.20,ENE,68,0.3,2.3,99,0.00,OVC,,0.00,76.0,WeatherDisplay:10.37,2016-08-28 12:13:00,
2016-08-28 08:18:00,72.0,71.7,30.21,ENE,60,0.0,0.0,99,0.00,OVC,,0.00,67.0,WeatherDisplay:10.37,2016-08-28 12:18:00,
2016-08-28 08:23:00,72.2,71.9,30.20,NE,55,0.0,0.0,99,0.00,OVC,,0.00,46.0,WeatherDisplay:10.37,2016-08-28 12:23:00,
2016-08-28 08:28:00,72.4,72.1,30.21,NE,55,0.0,0.0,99,0.00,OVC,,0.00,93.0,WeatherDisplay:10.37,2016-08-28 12:28:00,
2016-08-28 08:33:00,72.6,72.3,30.21,NE,55,0.0,0.0,99,0.00,OVC,,0.00,105.0,WeatherDisplay:10.37,2016-08-28 12:33:00,
2016-08-28 08:38:00,72.8,72.5,30.21,NE,43,0.0,0.0,99,0.00,OVC,,0.00,135.0,WeatherDisplay:10.37,2016-08-28 12:38:00,
2016-08-28 08:43:00,73.1,72.8,30.20,East,100,0.0,0.0,99,0.00,OVC,,0.00,162.0,WeatherDisplay:10.37,2016-08-28 12:43:00,
2016-08-28 08:48:00,73.3,73.0,30.20,East,100,0.0,0.0,99,0.00,OVC,,0.00,156.0,WeatherDisplay:10.37,2016-08-28 12:48:00,
2016-08-28 08:53:00,73.6,73.3,30.20,East,85,0.0,0.0,99,0.00,OVC,,0.00,102.0,WeatherDisplay:10.37,2016-08-28 12:53:00,
2016-08-28 08:58:00,73.8,73.5,30.20,East,85,0.0,0.0,99,0.00,OVC,,0.00,81.0,WeatherDisplay:10.37,2016-08-28 12:58:00,
2016-08-28 09:03:00,74.0,73.7,30.20,ENE,78,0.0,0.0,99,0.00,OVC,,0.00,104.0,WeatherDisplay:10.37,2016-08-28 13:03:00,
2016-08-28 09:08:00,74.3,74.0,30.21,ESE,108,0.0,0.0,99,0.00,OVC,,0.00,121.0,WeatherDisplay:10.37,2016-08-28 13:08:00,
2016-08-28 09:13:00,74.5,74.2,30.20,ESE,113,0.0,0.0,99,0.00,OVC,,0.00,109.0,WeatherDisplay:10.37,2016-08-28 13:13:00,
2016-08-28 09:18:00,74.9,74.6,30.20,ESE,118,0.0,1.2,99,0.00,OVC,,0.00,100.0,WeatherDisplay:10.37,2016-08-28 13:18:00,
2016-08-28 09:23:00,75.1,74.2,30.20,ENE,76,2.1,3.5,97,0.00,OVC,,0.00,167.0,WeatherDisplay:10.37,2016-08-28 13:23:00,
2016-08-28 09:28:00,75.4,74.2,30.20,ENE,67,1.8,3.5,96,0.00,OVC,,0.00,176.0,WeatherDisplay:10.37,2016-08-28 13:28:00,
2016-08-28 09:33:00,75.8,74.6,30.20,ENE,71,0.0,0.0,96,0.00,OVC,,0.00,225.0,WeatherDisplay:10.37,2016-08-28 13:33:00,
2016-08-28 09:38:00,76.3,74.4,30.21,East,100,0.0,1.2,94,0.00,OVC,,0.00,121.0,WeatherDisplay:10.37,2016-08-28 13:38:00,
2016-08-28 09:43:00,76.6,74.4,30.20,ENE,61,0.0,0.0,93,0.00,OVC,,0.00,63.0,WeatherDisplay:10.37,2016-08-28 13:43:00,
2016-08-28 09:48:00,76.8,74.3,30.20,ESE,119,0.0,0.0,92,0.00,OVC,,0.00,155.0,WeatherDisplay:10.37,2016-08-28 13:48:00,
2016-08-28 09:53:00,77.0,73.8,30.21,East,101,1.3,3.5,90,0.00,OVC,,0.00,165.0,WeatherDisplay:10.37,2016-08-28 13:53:00,
2016-08-28 09:58:00,77.4,74.2,30.21,ESE,108,0.0,0.0,90,0.00,OVC,,0.00,156.0,WeatherDisplay:10.37,2016-08-28 13:58:00,
2016-08-28 10:03:00,77.8,74.3,30.21,NE,39,0.0,0.0,89,0.00,BKN,,0.00,142.0,WeatherDisplay:10.37,2016-08-28 14:03:00,
2016-08-28 10:08:00,78.2,74.4,30.21,NNE,26,0.0,0.0,88,0.00,BKN,,0.00,98.0,WeatherDisplay:10.37,2016-08-28 14:08:00,
2016-08-28 10:13:00,78.8,73.6,30.21,East,94,0.0,1.2,84,0.00,BKN,,0.00,188.0,WeatherDisplay:10.37,2016-08-28 14:13:00,
2016-08-28 10:18:00,79.5,73.2,30.21,East,100,0.0,0.0,81,0.00,BKN,,0.00,165.0,WeatherDisplay:10.37,2016-08-28 14:18:00,
2016-08-28 10:23:00,80.1,73.0,30.21,NNE,33,3.3,4.6,79,0.00,BKN,,0.00,132.0,WeatherDisplay:10.37,2016-08-28 14:23:00,
2016-08-28 10:33:00,80.7,72.8,30.20,NE,39,0.1,1.0,77,0.00,BKN,,0.00,225.0,WeatherDisplay:10.37,2016-08-28 14:33:00,
2016-08-28 10:38:00,81.2,73.3,30.20,NNE,26,0.5,3.0,77,0.00,BKN,,0.00,213.0,WeatherDisplay:10.37,2016-08-28 14:38:00,
2016-08-28 10:43:00,81.6,73.3,30.21,NE,39,2.1,5.8,76,0.00,BKN,,0.00,450.0,WeatherDisplay:10.37,2016-08-28 14:43:00,
2016-08-28 10:48:00,82.1,73.0,30.20,NE,40,2.3,4.0,74,0.00,BKN,,0.00,90.0,WeatherDisplay:10.37,2016-08-28 14:48:00,
2016-08-28 10:53:00,82.2,73.1,30.20,NE,51,0.0,0.0,74,0.00,BKN,,0.00,309.0,WeatherDisplay:10.37,2016-08-28 14:53:00,
2016-08-28 10:58:00,82.3,72.4,30.20,SE,138,0.0,2.3,72,0.00,BKN,,0.00,664.0,WeatherDisplay:10.37,2016-08-28 14:58:00,
2016-08-28 11:03:00,83.0,72.6,30.20,East,80,0.5,1.2,71,0.00,BKN,,0.00,752.0,WeatherDisplay:10.37,2016-08-28 15:03:00,
2016-08-28 11:08:00,83.0,73.9,30.20,SE,138,1.5,3.5,74,0.00,BKN,,0.00,817.0,WeatherDisplay:10.37,2016-08-28 15:08:00,
2016-08-28 11:13:00,84.0,72.3,30.20,East,94,2.4,5.8,68,0.00,BKN,,0.00,833.0,WeatherDisplay:10.37,2016-08-28 15:13:00,
2016-08-28 11:18:00,83.9,72.2,30.20,ENE,64,0.0,3.5,68,0.00,BKN,,0.00,840.0,WeatherDisplay:10.37,2016-08-28 15:18:00,
2016-08-28 11:23:00,83.8,72.1,30.20,SE,145,1.0,3.0,68,0.00,BKN,,0.00,84.0,WeatherDisplay:10.37,2016-08-28 15:23:00,
2016-08-28 11:28:00,83.5,70.9,30.20,NE,38,4.3,8.1,66,0.00,BKN,,0.00,538.0,WeatherDisplay:10.37,2016-08-28 15:28:00,
2016-08-28 11:33:00,83.9,70.4,30.20,East,92,6.2,9.0,64,0.00,BKN,,0.00,870.0,WeatherDisplay:10.37,2016-08-28 15:33:00,
2016-08-28 11:38:00,84.6,71.1,30.20,NNE,28,3.3,5.8,64,0.00,BKN,,0.00,967.0,WeatherDisplay:10.37,2016-08-28 15:38:00,
2016-08-28 11:43:00,84.5,71.9,30.20,NE,56,1.6,4.6,66,0.00,BKN,,0.00,967.0,WeatherDisplay:10.37,2016-08-28 15:43:00,
2016-08-28 11:48:00,85.3,72.2,30.20,NE,43,0.0,0.0,65,0.00,BKN,,0.00,937.0,WeatherDisplay:10.37,2016-08-28 15:48:00,
2016-08-28 11:53:00,85.1,71.1,30.20,East,90,1.1,3.5,63,0.00,BKN,,0.00,939.0,WeatherDisplay:10.37,2016-08-28 15:53:00,
2016-08-28 11:58:00,85.6,71.1,30.20,East,94,0.5,5.0,62,0.00,BKN,,0.00,1007.0,WeatherDisplay:10.37,2016-08-28 15:58:00,
2016-08-28 12:03:00,86.8,72.2,30.20,NE,48,0.1,0.0,62,0.00,SCT,,0.00,1049.0,WeatherDisplay:10.37,2016-08-28 16:03:00,
2016-08-28 12:08:00,85.8,70.3,30.20,NW,304,2.8,4.6,60,0.00,SCT,,0.00,1058.0,WeatherDisplay:10.37,2016-08-28 16:08:00,
2016-08-28 12:13:00,86.3,71.7,30.20,NW,308,0.3,3.5,62,0.00,SCT,,0.00,1002.0,WeatherDisplay:10.37,2016-08-28 16:13:00,
2016-08-28 12:18:00,87.5,71.4,30.20,NNE,28,0.0,0.0,59,0.00,SCT,,0.00,1004.0,WeatherDisplay:10.37,2016-08-28 16:18:00,
2016-08-28 12:23:00,86.8,70.2,30.20,East,86,0.1,1.2,58,0.00,SCT,,0.00,1039.0,WeatherDisplay:10.37,2016-08-28 16:23:00,
2016-08-28 12:28:00,86.4,69.9,30.20,NNW,338,2.9,6.9,58,0.00,SCT,,0.00,960.0,WeatherDisplay:10.37,2016-08-28 16:28:00,
2016-08-28 12:33:00,87.0,70.4,30.20,ENE,64,0.2,2.0,58,0.00,SCT,,0.00,1021.0,WeatherDisplay:10.37,2016-08-28 16:33:00,
2016-08-28 12:38:00,86.8,69.7,30.19,NNW,327,1.8,4.6,57,0.00,SCT,,0.00,1071.0,WeatherDisplay:10.37,2016-08-28 16:38:00,
2016-08-28 12:43:00,86.4,68.8,30.19,NW,317,1.2,3.0,56,0.00,SCT,,0.00,127.0,WeatherDisplay:10.37,2016-08-28 16:43:00,
2016-08-28 12:48:00,85.6,68.1,30.19,ENE,59,1.8,3.0,56,0.00,SCT,,0.00,969.0,WeatherDisplay:10.37,2016-08-28 16:48:00,
2016-08-28 12:53:00,86.5,68.4,30.19,NE,36,0.1,2.3,55,0.00,SCT,,0.00,977.0,WeatherDisplay:10.37,2016-08-28 16:53:00,
2016-08-28 12:58:00,87.5,67.1,30.19,West,263,2.3,3.5,51,0.00,SCT,,0.00,1027.0,WeatherDisplay:10.37,2016-08-28 16:58:00,
2016-08-28 13:03:00,86.9,68.3,30.19,NNE,18,0.0,0.0,54,0.00,SCT,,0.00,954.0,WeatherDisplay:10.37,2016-08-28 17:03:00,
2016-08-28 13:08:00,88.1,69.4,30.19,NNE,26,1.2,2.3,54,0.00,SCT,,0.00,960.0,WeatherDisplay:10.37,2016-08-28 17:08:00,
2016-08-28 13:13:00,87.8,69.1,30.19,ESE,119,2.9,4.6,54,0.00,SCT,,0.00,958.0,WeatherDisplay:10.37,2016-08-28 17:13:00,
2016-08-28 13:18:00,87.3,68.6,30.19,NNE,24,1.5,6.0,54,0.00,SCT,,0.00,962.0,WeatherDisplay:10.37,2016-08-28 17:18:00,
2016-08-28 13:23:00,87.3,68.1,30.19,ESE,117,0.0,0.0,53,0.00,SCT,,0.00,958.0,WeatherDisplay:10.37,2016-08-28 17:23:00,
2016-08-28 13:28:00,86.6,67.4,30.19,NE,37,0.9,3.5,53,0.00,SCT,,0.00,960.0,WeatherDisplay:10.37,2016-08-28 17:28:00,
2016-08-28 13:33:00,86.8,67.6,30.19,SE,134,0.4,2.3,53,0.00,SCT,,0.00,564.0,WeatherDisplay:10.37,2016-08-28 17:33:00,
2016-08-28 13:38:00,86.6,66.3,30.18,East,88,0.6,3.5,51,0.00,SCT,,0.00,292.0,WeatherDisplay:10.37,2016-08-28 17:38:00,
2016-08-28 13:43:00,86.8,65.9,30.18,NE,36,0.9,5.8,50,0.00,SCT,,0.00,272.0,WeatherDisplay:10.37,2016-08-28 17:43:00,
2016-08-28 13:48:00,86.9,68.3,30.18,NNE,33,1.3,3.5,54,0.00,SCT,,0.00,163.0,WeatherDisplay:10.37,2016-08-28 17:48:00,
2016-08-28 13:53:00,86.7,67.5,30.18,East,90,0.1,1.2,53,0.00,SCT,,0.00,418.0,WeatherDisplay:10.37,2016-08-28 17:53:00,
2016-08-28 13:58:00,86.9,67.7,30.18,ENE,76,0.0,0.0,53,0.00,SCT,,0.00,932.0,WeatherDisplay:10.37,2016-08-28 17:58:00,
2016-08-28 14:03:00,87.9,69.2,30.18,ESE,108,1.8,3.5,54,0.00,SCT,,0.00,930.0,WeatherDisplay:10.37,2016-08-28 18:03:00,
2016-08-28 14:08:00,87.7,66.8,30.17,ENE,75,1.7,4.0,50,0.00,SCT,,0.00,926.0,WeatherDisplay:10.37,2016-08-28 18:08:00,
2016-08-28 14:13:00,88.2,67.2,30.17,ESE,116,2.2,4.6,50,0.00,SCT,,0.00,923.0,WeatherDisplay:10.37,2016-08-28 18:13:00,
2016-08-28 14:18:00,88.9,69.6,30.17,ENE,76,0.0,0.0,53,0.00,SCT,,0.00,912.0,WeatherDisplay:10.37,2016-08-28 18:18:00,
2016-08-28 14:23:00,89.0,68.5,30.17,NE,50,3.9,6.9,51,0.00,SCT,,0.00,911.0,WeatherDisplay:10.37,2016-08-28 18:23:00,
2016-08-28 14:28:00,88.0,68.7,30.16,ESE,122,0.0,1.0,53,0.00,SCT,,0.00,937.0,WeatherDisplay:10.37,2016-08-28 18:28:00,
2016-08-28 14:33:00,88.2,70.0,30.16,North,355,1.5,4.6,55,0.00,SCT,,0.00,909.0,WeatherDisplay:10.37,2016-08-28 18:33:00,
2016-08-28 14:38:00,90.4,69.2,30.16,NW,317,0.9,2.3,50,0.00,SCT,,0.00,886.0,WeatherDisplay:10.37,2016-08-28 18:38:00,
2016-08-28 14:43:00,90.2,68.5,30.16,East,80,0.0,1.2,49,0.00,SCT,,0.00,874.0,WeatherDisplay:10.37,2016-08-28 18:43:00,
2016-08-28 14:48:00,90.2,69.6,30.15,NE,44,0.0,2.3,51,0.00,SCT,,0.00,824.0,WeatherDisplay:10.37,2016-08-28 18:48:00,
2016-08-28 14:53:00,89.4,68.3,30.15,WNW,298,0.0,3.5,50,0.00,SCT,,0.00,867.0,WeatherDisplay:10.37,2016-08-28 18:53:00,
2016-08-28 14:58:00,89.7,68.6,30.15,NNW,328,1.6,6.0,50,0.00,SCT,,0.00,847.0,WeatherDisplay:10.37,2016-08-28 18:58:00,
2016-08-28 15:03:00,90.2,68.5,30.15,NE,46,0.5,3.5,49,0.00,FEW,,0.00,826.0,WeatherDisplay:10.37,2016-08-28 19:03:00,
2016-08-28 15:08:00,89.8,68.1,30.14,NE,48,0.1,3.5,49,0.00,FEW,,0.00,831.0,WeatherDisplay:10.37,2016-08-28 19:08:00,
2016-08-28 15:13:00,89.7,68.0,30.14,NNE,13,3.4,6.9,49,0.00,FEW,,0.00,816.0,WeatherDisplay:10.37,2016-08-28 19:13:00,
2016-08-28 15:18:00,89.1,66.9,30.14,ESE,119,0.0,1.2,48,0.00,FEW,,0.00,812.0,WeatherDisplay:10.37,2016-08-28 19:18:00,
2016-08-28 15:23:00,89.2,67.5,30.14,ENE,78,0.0,1.2,49,0.00,FEW,,0.00,802.0,WeatherDisplay:10.37,2016-08-28 19:23:00,
2016-08-28 15:28:00,88.3,67.3,30.14,WNW,294,0.0,0.0,50,0.00,FEW,,0.00,791.0,WeatherDisplay:10.37,2016-08-28 19:28:00,
2016-08-28 15:33:00,88.6,69.3,30.14,NNW,347,0.0,0.0,53,0.00,FEW,,0.00,773.0,WeatherDisplay:10.37,2016-08-28 19:33:00,
2016-08-28 15:38:00,89.5,68.4,30.13,SSE,155,0.0,0.0,50,0.00,FEW,,0.00,758.0,WeatherDisplay:10.37,2016-08-28 19:38:00,
2016-08-28 15:43:00,88.7,67.1,30.13,SE,134,1.3,3.5,49,0.00,FEW,,0.00,128.0,WeatherDisplay:10.37,2016-08-28 19:43:00,
2016-08-28 15:48:00,88.3,66.7,30.14,ESE,121,4.9,7.0,49,0.00,FEW,,0.00,121.0,WeatherDisplay:10.37,2016-08-28 19:48:00,
2016-08-28 15:53:00,87.6,67.2,30.13,NW,317,1.8,4.0,51,0.00,FEW,,0.00,192.0,WeatherDisplay:10.37,2016-08-28 19:53:00,
2016-08-28 15:58:00,87.6,68.4,30.13,ENE,59,3.4,8.1,53,0.00,FEW,,0.00,151.0,WeatherDisplay:10.37,2016-08-28 19:58:00,
2016-08-28 16:03:00,87.7,68.4,30.13,ENE,74,3.5,6.9,53,0.00,BKN,,0.00,100.0,WeatherDisplay:10.37,2016-08-28 20:03:00,
2016-08-28 16:08:00,87.6,68.9,30.12,ENE,63,0.0,0.0,54,0.00,BKN,,0.00,91.0,WeatherDisplay:10.37,2016-08-28 20:08:00,
2016-08-28 16:13:00,87.4,68.2,30.12,ENE,73,0.0,1.2,53,0.00,BKN,,0.00,114.0,WeatherDisplay:10.37,2016-08-28 20:13:00,
2016-08-28 16:18:00,87.3,68.1,30.12,NNE,33,2.1,3.0,53,0.00,BKN,,0.00,77.0,WeatherDisplay:10.37,2016-08-28 20:18:00,
2016-08-28 16:23:00,87.3,68.1,30.12,NNE,20,0.4,5.8,53,0.00,BKN,,0.00,60.0,WeatherDisplay:10.37,2016-08-28 20:23:00,
2016-08-28 16:28:00,87.2,68.5,30.12,ENE,62,1.9,3.5,54,0.00,BKN,,0.00,56.0,WeatherDisplay:10.37,2016-08-28 20:28:00,
2016-08-28 16:33:00,87.1,68.4,30.12,SSE,151,0.0,0.0,54,0.00,BKN,,0.00,128.0,WeatherDisplay:10.37,2016-08-28 20:33:00,
2016-08-28 16:38:00,87.0,68.3,30.12,East,93,2.4,6.0,54,0.00,BKN,,0.00,51.0,WeatherDisplay:10.37,2016-08-28 20:38:00,
2016-08-28 16:43:00,86.8,67.6,30.12,East,86,3.2,6.9,53,0.00,BKN,,0.00,53.0,WeatherDisplay:10.37,2016-08-28 20:43:00,
2016-08-28 16:48:00,86.6,68.0,30.11,NNE,15,0.9,1.2,54,0.00,BKN,,0.00,47.0,WeatherDisplay:10.37,2016-08-28 20:48:00,
2016-08-28 16:53:00,86.5,67.3,30.12,SE,124,1.3,4.0,53,0.00,BKN,,0.00,74.0,WeatherDisplay:10.37,2016-08-28 20:53:00,
2016-08-28 16:58:00,86.5,67.9,30.12,NNW,333,0.1,4.6,54,0.00,BKN,,0.00,54.0,WeatherDisplay:10.37,2016-08-28 20:58:00,
2016-08-28 17:03:00,86.5,67.9,30.12,East,91,0.0,3.5,54,0.00,BKN,,0.00,56.0,WeatherDisplay:10.37,2016-08-28 21:03:00,
2016-08-28 17:08:00,86.5,67.9,30.11,East,84,4.3,9.2,54,0.00,BKN,,0.00,74.0,WeatherDisplay:10.37,2016-08-28 21:08:00,
2016-08-28 17:13:00,86.4,68.3,30.11,ENE,65,0.0,2.0,55,0.00,BKN,,0.00,51.0,WeatherDisplay:10.37,2016-08-28 21:13:00,
2016-08-28 17:18:00,86.3,68.2,30.11,ESE,103,0.0,2.3,55,0.00,BKN,,0.00,54.0,WeatherDisplay:10.37,2016-08-28 21:18:00,
2016-08-28 17:23:00,86.2,68.7,30.11,NNE,25,1.2,6.9,56,0.00,BKN,,0.00,51.0,WeatherDisplay:10.37,2016-08-28 21:23:00,
2016-08-28 17:28:00,86.1,68.6,30.11,ENE,76,3.7,6.0,56,0.00,BKN,,0.00,65.0,WeatherDisplay:10.37,2016-08-28 21:28:00,
2016-08-28 17:33:00,86.0,68.0,30.11,NE,52,0.8,6.9,55,0.00,BKN,,0.00,72.0,WeatherDisplay:10.37,2016-08-28 21:33:00,
2016-08-28 17:38:00,85.9,67.9,30.11,North,9,0.0,0.0,55,0.00,BKN,,0.00,77.0,WeatherDisplay:10.37,2016-08-28 21:38:00,
2016-08-28 17:43:00,85.9,67.9,30.11,ENE,66,0.5,3.5,55,0.00,BKN,,0.00,69.0,WeatherDisplay:10.37,2016-08-28 21:43:00,
2016-08-28 17:48:00,85.8,68.3,30.11,NE,55,2.0,3.5,56,0.00,BKN,,0.00,63.0,WeatherDisplay:10.37,2016-08-28 21:48:00,
2016-08-28 17:53:00,85.7,67.7,30.11,ENE,64,0.3,3.5,55,0.00,BKN,,0.00,69.0,WeatherDisplay:10.37,2016-08-28 21:53:00,
2016-08-28 17:58:00,85.6,67.6,30.11,NE,52,0.0,1.2,55,0.00,BKN,,0.00,69.0,WeatherDisplay:10.37,2016-08-28 21:58:00,
2016-08-28 18:03:00,85.6,67.6,30.11,East,98,1.8,4.6,55,0.00,BKN,,0.00,67.0,WeatherDisplay:10.37,2016-08-28 22:03:00,
2016-08-28 18:08:00,85.6,68.1,30.11,ENE,76,2.7,5.8,56,0.00,BKN,,0.00,76.0,WeatherDisplay:10.37,2016-08-28 22:08:00,
2016-08-28 18:13:00,85.7,68.2,30.11,SE,128,0.0,3.5,56,0.00,BKN,,0.00,105.0,WeatherDisplay:10.37,2016-08-28 22:13:00,
2016-08-28 18:18:00,85.6,68.1,30.11,SE,124,0.6,4.6,56,0.00,BKN,,0.00,58.0,WeatherDisplay:10.37,2016-08-28 22:18:00,
2016-08-28 18:23:00,85.5,68.0,30.11,ENE,76,0.0,1.2,56,0.00,BKN,,0.00,56.0,WeatherDisplay:10.37,2016-08-28 22:23:00,
2016-08-28 18:28:00,85.4,67.9,30.11,East,96,0.0,1.2,56,0.00,BKN,,0.00,51.0,WeatherDisplay:10.37,2016-08-28 22:28:00,
2016-08-28 18:33:00,85.2,67.2,30.11,ENE,71,2.7,4.0,55,0.00,BKN,,0.00,51.0,WeatherDisplay:10.37,2016-08-28 22:33:00,
2016-08-28 18:38:00,85.0,67.5,30.11,ESE,121,0.0,0.0,56,0.00,BKN,,0.00,46.0,WeatherDisplay:10.37,2016-08-28 22:38:00,
2016-08-28 18:43:00,84.8,67.4,30.11,NE,49,2.4,3.5,56,0.00,BKN,,0.00,40.0,WeatherDisplay:10.37,2016-08-28 22:43:00,
2016-08-28 18:48:00,84.7,67.3,30.11,ESE,118,3.2,7.0,56,0.00,BKN,,0.00,35.0,WeatherDisplay:10.37,2016-08-28 22:48:00,
2016-08-28 18:53:00,84.5,67.1,30.11,East,90,0.4,4.6,56,0.00,BKN,,0.00,30.0,WeatherDisplay:10.37,2016-08-28 22:53:00,
2016-08-28 18:58:00,84.4,67.0,30.10,East,94,0.0,1.2,56,0.00,BKN,,0.00,26.0,WeatherDisplay:10.37,2016-08-28 22:58:00,
2016-08-28 19:03:00,84.2,66.8,30.10,ENE,74,1.4,6.9,56,0.00,BKN,,0.00,21.0,WeatherDisplay:10.37,2016-08-28 23:03:00,
2016-08-28 19:08:00,84.0,66.1,30.10,ENE,60,0.0,1.2,55,0.00,BKN,,0.00,19.0,WeatherDisplay:10.37,2016-08-28 23:08:00,
2016-08-28 19:13:00,83.8,65.9,30.10,NE,42,1.0,3.5,55,0.00,BKN,,0.00,14.0,WeatherDisplay:10.37,2016-08-28 23:13:00,
2016-08-28 19:18:00,83.5,65.6,30.10,ENE,65,0.0,0.0,55,0.00,BKN,,0.00,11.0,WeatherDisplay:10.37,2016-08-28 23:18:00,
2016-08-28 19:23:00,83.3,65.4,30.10,East,82,0.5,2.0,55,0.00,BKN,,0.00,9.0,WeatherDisplay:10.37,2016-08-28 23:23:00,
2016-08-28 19:28:00,83.1,65.3,30.11,ENE,64,2.0,3.5,55,0.00,BKN,,0.00,7.0,WeatherDisplay:10.37,2016-08-28 23:28:00,
2016-08-28 19:33:00,82.9,65.6,30.10,ENE,69,0.4,1.0,56,0.00,BKN,,0.00,5.0,WeatherDisplay:10.37,2016-08-28 23:33:00,
2016-08-28 19:38:00,82.7,65.4,30.10,ENE,59,0.0,0.0,56,0.00,BKN,,0.00,0.0,WeatherDisplay:10.37,2016-08-28 23:38:00,
2016-08-28 19:43:00,82.5,65.2,30.10,NNE,28,1.4,2.3,56,0.00,BKN,,0.00,0.0,WeatherDisplay:10.37,2016-08-28 23:43:00,
2016-08-28 19:48:00,82.2,65.4,30.10,NE,50,0.0,1.2,57,0.00,BKN,,0.00,0.0,WeatherDisplay:10.37,2016-08-28 23:48:00,
2016-08-28 19:53:00,82.0,65.3,30.10,East,87,1.2,3.5,57,0.00,BKN,,0.00,0.0,WeatherDisplay:10.37,2016-08-28 23:53:00,
2016-08-28 19:59:00,81.8,65.1,30.11,ENE,69,0.0,0.0,57,0.00,BKN,,0.00,0.0,WeatherDisplay:10.37,2016-08-28 23:59:00,
2016-08-28 20:04:00,81.6,65.4,30.11,ENE,59,0.1,3.5,58,0.00,SCT,,0.00,0.0,WeatherDisplay:10.37,2016-08-29 00:04:00,
2016-08-28 20:14:00,81.2,65.0,30.11,ENE,59,0.0,0.0,58,0.00,SCT,,0.00,0.0,WeatherDisplay:10.37,2016-08-29 00:14:00,
2016-08-28 20:19:00,81.0,65.3,30.11,ENE,59,0.0,0.0,59,0.00,SCT,,0.00,0.0,WeatherDisplay:10.37,2016-08-29 00:19:00,
2016-08-28 20:24:00,80.7,65.0,30.11,ENE,59,0.0,0.0,59,0.00,SCT,,0.00,0.0,WeatherDisplay:10.37,2016-08-29 00:24:00,
2016-08-28 20:29:00,80.5,65.3,30.11,ENE,59,0.0,0.0,60,0.00,SCT,,0.00,0.0,WeatherDisplay:10.37,2016-08-29 00:29:00,
2016-08-28 20:34:00,80.2,65.1,30.11,ENE,59,0.0,1.2,60,0.00,SCT,,0.00,0.0,WeatherDisplay:10.37,2016-08-29 00:34:00,
2016-08-28 20:39:00,80.0,65.8,30.11,ENE,59,0.0,0.0,62,0.00,SCT,,0.00,0.0,WeatherDisplay:10.37,2016-08-29 00:39:00,
2016-08-28 20:44:00,79.7,65.5,30.11,ENE,59,0.0,0.0,62,0.00,SCT,,0.00,0.0,WeatherDisplay:10.37,2016-08-29 00:44:00,
2016-08-28 20:49:00,79.4,65.7,30.11,ESE,111,0.0,0.0,63,0.00,SCT,,0.00,0.0,WeatherDisplay:10.37,2016-08-29 00:49:00,
2016-08-28 20:54:00,79.3,66.1,30.12,NE,51,0.0,3.5,64,0.00,SCT,,0.00,0.0,WeatherDisplay:10.37,2016-08-29 00:54:00,
2016-08-28 20:59:00,79.2,66.0,30.12,NE,54,0.0,0.0,64,0.00,SCT,,0.00,0.0,WeatherDisplay:10.37,2016-08-29 00:59:00,
2016-08-28 21:04:00,79.1,66.3,30.12,NE,54,0.0,0.0,65,0.00,SCT,,0.00,0.0,WeatherDisplay:10.37,2016-08-29 01:04:00,
2016-08-28 21:09:00,79.0,66.2,30.12,NE,54,0.0,0.0,65,0.00,SCT,,0.00,0.0,WeatherDisplay:10.37,2016-08-29 01:09:00,
2016-08-28 21:14:00,78.9,66.6,30.12,ENE,71,0.0,0.0,66,0.00,SCT,,0.00,0.0,WeatherDisplay:10.37,2016-08-29 01:14:00,
2016-08-28 21:19:00,78.8,66.5,30.12,ENE,73,0.0,0.0,66,0.00,SCT,,0.00,0.0,WeatherDisplay:10.37,2016-08-29 01:19:00,
2016-08-28 21:24:00,78.7,66.4,30.12,East,85,0.7,2.3,66,0.00,SCT,,0.00,0.0,WeatherDisplay:10.37,2016-08-29 01:24:00,
2016-08-28 21:29:00,78.6,67.2,30.12,East,85,0.0,0.0,68,0.00,SCT,,0.00,0.0,WeatherDisplay:10.37,2016-08-29 01:29:00,
2016-08-28 21:34:00,78.5,67.5,30.12,East,85,0.0,0.0,69,0.00,SCT,,0.00,0.0,WeatherDisplay:10.37,2016-08-29 01:34:00,
2016-08-28 21:39:00,78.4,67.4,30.12,East,85,0.0,0.0,69,0.00,SCT,,0.00,0.0,WeatherDisplay:10.37,2016-08-29 01:39:00,
2016-08-28 21:44:00,78.2,67.6,30.12,East,85,0.0,0.0,70,0.00,SCT,,0.00,0.0,WeatherDisplay:10.37,2016-08-29 01:44:00,
2016-08-28 21:49:00,78.1,67.9,30.12,East,85,0.0,2.3,71,0.00,SCT,,0.00,0.0,WeatherDisplay:10.37,2016-08-29 01:49:00,
2016-08-28 21:54:00,78.1,67.9,30.13,East,85,0.0,1.2,71,0.00,CLR,,0.00,0.0,WeatherDisplay:10.37,2016-08-29 01:54:00,
2016-08-28 21:59:00,77.9,67.7,30.13,East,85,0.0,0.0,71,0.00,CLR,,0.00,0.0,WeatherDisplay:10.37,2016-08-29 01:59:00,
2016-08-28 22:04:00,77.7,68.0,30.14,East,85,0.0,0.0,72,0.00,SCT,,0.00,0.0,WeatherDisplay:10.37,2016-08-29 02:04:00,
2016-08-28 22:09:00,77.6,67.9,30.14,East,85,0.0,0.0,72,0.00,SCT,,0.00,0.0,WeatherDisplay:10.37,2016-08-29 02:09:00,
2016-08-28 22:14:00,77.4,67.7,30.14,East,85,0.0,0.0,72,0.00,SCT,,0.00,0.0,WeatherDisplay:10.37,2016-08-29 02:14:00,
2016-08-28 22:19:00,77.2,68.3,30.14,East,85,0.0,0.0,74,0.00,SCT,,0.00,0.0,WeatherDisplay:10.37,2016-08-29 02:19:00,
2016-08-28 22:29:00,76.8,68.3,30.14,East,88,0.0,0.0,75,0.00,SCT,,0.00,0.0,WeatherDisplay:10.37,2016-08-29 02:29:00,
2016-08-28 22:34:00,76.6,68.5,30.14,East,88,0.0,0.0,76,0.00,CLR,,0.00,0.0,WeatherDisplay:10.37,2016-08-29 02:34:00,
2016-08-28 22:39:00,76.4,68.7,30.14,East,88,0.0,0.0,77,0.00,CLR,,0.00,0.0,WeatherDisplay:10.37,2016-08-29 02:39:00,
2016-08-28 22:44:00,76.1,68.4,30.15,East,88,0.0,0.0,77,0.00,CLR,,0.00,0.0,WeatherDisplay:10.37,2016-08-29 02:44:00,
2016-08-28 22:49:00,75.9,68.9,30.15,East,88,0.0,0.0,79,0.00,SCT,,0.00,0.0,WeatherDisplay:10.37,2016-08-29 02:49:00,
2016-08-28 22:54:00,75.7,68.7,30.15,East,88,0.0,0.0,79,0.00,SCT,,0.00,0.0,WeatherDisplay:10.37,2016-08-29 02:54:00,
2016-08-28 22:59:00,75.5,68.5,30.15,East,88,0.0,0.0,79,0.00,SCT,,0.00,0.0,WeatherDisplay:10.37,2016-08-29 02:59:00,
2016-08-28 23:04:00,75.2,68.6,30.15,East,88,0.0,0.0,80,0.00,SCT,,0.00,0.0,WeatherDisplay:10.37,2016-08-29 03:04:00,
2016-08-28 23:09:00,75.0,68.4,30.15,East,88,0.0,0.0,80,0.00,SCT,,0.00,0.0,WeatherDisplay:10.37,2016-08-29 03:09:00,
2016-08-28 23:14:00,74.8,68.6,30.15,East,88,0.0,0.0,81,0.00,SCT,,0.00,0.0,WeatherDisplay:10.37,2016-08-29 03:14:00,
2016-08-28 23:19:00,74.6,68.4,30.15,East,88,0.0,0.0,81,0.00,SCT,,0.00,0.0,WeatherDisplay:10.37,2016-08-29 03:19:00,